When you browse on this site, cookies collect data to enhance your experience and personalize the content and advertising you see.
Visit our Privacy Policy to learn more. By continuing to use the site, you agree to this use of cookies and data.
  • en Suisse
  • Liste des pays
  • À 7 jours
  • Température de l'eau
  • Carte météo
  • Widgets météo
  • user-avatar
    Se connecter

    Météo par heure à Liège

    Ce jour, 23 Janvier, Jeudi

    Heure Température Précipitation Vent Pression Humidité
    00:00 +3°C° 0 mm 1 m/s 767 mmHg 91%
    01:00 +2°C° 0 mm 1 m/s 767 mmHg 91%
    02:00 +2°C° 0 mm 1 m/s 766 mmHg 91%
    03:00 +2°C° 0 mm 1 m/s 766 mmHg 91%
    04:00 +2°C° 0 mm 1 m/s 765 mmHg 92%
    05:00 -1°C° 0 mm 2 m/s 765 mmHg 92%
    06:00 +1°C° 0 mm 1 m/s 765 mmHg 93%
    07:00 +1°C° 0 mm 2 m/s 765 mmHg 91%
    08:00 +1°C° 0 mm 2 m/s 765 mmHg 88%
    09:00 +2°C° 0 mm 2 m/s 764 mmHg 86%
    10:00 +3°C° 0 mm 2 m/s 764 mmHg 81%
    11:00 +4°C° 0 mm 2 m/s 764 mmHg 76%
    12:00 +6°C° 0 mm 2 m/s 763 mmHg 71%
    13:00 +5°C° 0 mm 2 m/s 763 mmHg 74%
    14:00 +5°C° 0 mm 2 m/s 762 mmHg 77%
    15:00 +5°C° 0 mm 2 m/s 761 mmHg 80%
    16:00 +3°C° 0 mm 2 m/s 761 mmHg 83%
    17:00 +2°C° 0 mm 2 m/s 761 mmHg 86%
    18:00 +2°C° 0 mm 1 m/s 761 mmHg 89%
    19:00 +2°C° 0 mm 1 m/s 761 mmHg 88%
    20:00 +2°C° 0 mm 1 m/s 761 mmHg 87%
    21:00 +2°C° 0 mm 1 m/s 760 mmHg 86%
    22:00 +2°C° 0 mm 1 m/s 760 mmHg 84%
    23:00 +1°C° 0 mm 1 m/s 760 mmHg 83%

    Demain, 24 Janvier, Vendredi

    Heure Température Précipitation Vent Pression Humidité
    00:00 +1°C° 0 mm 1 m/s 760 mmHg 81%
    01:00 +1°C° 0 mm 1 m/s 760 mmHg 80%
    02:00 +1°C° 0 mm 1 m/s 759 mmHg 79%
    03:00 +1°C° 0 mm 1 m/s 759 mmHg 77%
    04:00 +1°C° 0 mm 1 m/s 759 mmHg 77%
    05:00 +1°C° 0 mm 1 m/s 759 mmHg 77%
    06:00 +1°C° 0 mm 1 m/s 759 mmHg 77%
    07:00 +1°C° 0 mm 1 m/s 759 mmHg 75%
    08:00 +2°C° 0 mm 1 m/s 759 mmHg 72%
    09:00 +3°C° 0 mm 1 m/s 759 mmHg 70%
    10:00 +4°C° 0 mm 1 m/s 759 mmHg 65%
    11:00 +6°C° 0 mm 1 m/s 758 mmHg 61%
    12:00 +7°C° 0 mm 1 m/s 758 mmHg 57%
    13:00 +7°C° 0 mm 1 m/s 758 mmHg 61%
    14:00 +6°C° 0 mm 1 m/s 758 mmHg 66%
    15:00 +6°C° 0 mm 1 m/s 758 mmHg 71%
    16:00 +5°C° 0 mm 1 m/s 758 mmHg 75%
    17:00 +3°C° 0 mm 1 m/s 757 mmHg 79%
    18:00 +2°C° 0 mm 1 m/s 757 mmHg 83%
    19:00 +2°C° 0 mm 1 m/s 758 mmHg 82%
    20:00 +2°C° 0 mm 1 m/s 758 mmHg 82%
    21:00 +2°C° 0 mm 1 m/s 758 mmHg 82%
    22:00 +2°C° 0 mm 1 m/s 758 mmHg 82%
    23:00 +2°C° 0 mm 1 m/s 757 mmHg 82%

    Après-demain, 25 Janvier, Samedi

    Heure Température Précipitation Vent Pression Humidité
    00:00 0°C° 0 mm 0 m/s 757 mmHg 82%
    01:00 +1°C° 0 mm 1 m/s 757 mmHg 81%
    02:00 +2°C° 0 mm 1 m/s 757 mmHg 80%
    03:00 +2°C° 0 mm 1 m/s 756 mmHg 79%
    04:00 +2°C° 0 mm 1 m/s 756 mmHg 78%
    05:00 +2°C° 0 mm 1 m/s 756 mmHg 76%
    06:00 +2°C° 0 mm 1 m/s 756 mmHg 75%
    07:00 +3°C° 0 mm 1 m/s 756 mmHg 75%
    08:00 +3°C° 0 mm 1 m/s 756 mmHg 75%
    09:00 +4°C° 0 mm 1 m/s 756 mmHg 75%
    10:00 +5°C° 0 mm 1 m/s 756 mmHg 74%
    11:00 +7°C° 0 mm 1 m/s 756 mmHg 72%
    12:00 +8°C° 0 mm 1 m/s 756 mmHg 71%
    13:00 +8°C° 0 mm 1 m/s 755 mmHg 75%
    14:00 +7°C° 0 mm 1 m/s 755 mmHg 79%
    15:00 +7°C° 0 mm 1 m/s 754 mmHg 83%
    16:00 +6°C° 0 mm 1 m/s 754 mmHg 84%
    17:00 +5°C° 0 mm 1 m/s 754 mmHg 86%
    18:00 +5°C° 0 mm 1 m/s 754 mmHg 88%
    19:00 +3°C° 0 mm 2 m/s 754 mmHg 88%
    20:00 +3°C° 0 mm 2 m/s 754 mmHg 89%
    21:00 +3°C° 0 mm 2 m/s 754 mmHg 89%
    22:00 +3°C° 0 mm 2 m/s 754 mmHg 89%
    23:00 +3°C° 0 mm 2 m/s 754 mmHg 90%

    26 Janvier, Dimanche

    Heure Température Précipitation Vent Pression Humidité
    00:00 +3°C° 0 mm 2 m/s 754 mmHg 90%
    01:00 +3°C° 0 mm 2 m/s 753 mmHg 90%
    02:00 +2°C° 0 mm 3 m/s 753 mmHg 91%
    03:00 +2°C° 0 mm 3 m/s 753 mmHg 91%
    04:00 +2°C° 0 mm 3 m/s 753 mmHg 92%
    05:00 +2°C° 0 mm 3 m/s 753 mmHg 92%
    06:00 +2°C° 0 mm 3 m/s 753 mmHg 92%
    07:00 +2°C° 0 mm 3 m/s 753 mmHg 92%
    08:00 +3°C° 0 mm 3 m/s 753 mmHg 91%
    09:00 +4°C° 0 mm 4 m/s 753 mmHg 90%
    10:00 +5°C° 0 mm 4 m/s 753 mmHg 87%
    11:00 +6°C° 0 mm 5 m/s 753 mmHg 84%
    12:00 +7°C° 0 mm 5 m/s 753 mmHg 81%
    13:00 +7°C° 0 mm 5 m/s 752 mmHg 81%
    14:00 +7°C° 0 mm 5 m/s 752 mmHg 82%
    15:00 +7°C° 0 mm 6 m/s 752 mmHg 82%
    16:00 +7°C° 0 mm 5 m/s 752 mmHg 83%
    17:00 +7°C° 0 mm 5 m/s 752 mmHg 84%
    18:00 +7°C° 0 mm 5 m/s 752 mmHg 84%
    19:00 +7°C° 0 mm 5 m/s 752 mmHg 84%
    20:00 +7°C° 0 mm 5 m/s 751 mmHg 84%
    21:00 +7°C° 0 mm 5 m/s 751 mmHg 84%
    22:00 +7°C° 0 mm 5 m/s 751 mmHg 85%
    23:00 +7°C° 0 mm 6 m/s 750 mmHg 86%

    27 Janvier, Lundi

    Heure Température Précipitation Vent Pression Humidité
    00:00 +7°C° 0 mm 6 m/s 750 mmHg 87%
    01:00 +7°C° 0.4 mm 6 m/s 749 mmHg 87%
    02:00 +6°C° 0.4 mm 7 m/s 749 mmHg 87%
    03:00 +6°C° 0.4 mm 7 m/s 749 mmHg 87%
    04:00 +6°C° 0.7 mm 7 m/s 749 mmHg 88%
    05:00 +7°C° 0.7 mm 6 m/s 748 mmHg 88%
    06:00 +7°C° 0.7 mm 6 m/s 748 mmHg 89%
    07:00 +7°C° 0.2 mm 6 m/s 748 mmHg 88%
    08:00 +7°C° 0.2 mm 6 m/s 749 mmHg 88%
    09:00 +7°C° 0.2 mm 5 m/s 749 mmHg 87%
    10:00 +8°C° 0.2 mm 6 m/s 748 mmHg 86%
    11:00 +8°C° 0.2 mm 6 m/s 748 mmHg 84%
    12:00 +8°C° 0.2 mm 6 m/s 748 mmHg 83%
    13:00 +8°C° 0.3 mm 6 m/s 747 mmHg 83%
    14:00 +8°C° 0.3 mm 6 m/s 747 mmHg 84%
    15:00 +7°C° 0.3 mm 6 m/s 746 mmHg 84%
    16:00 +7°C° 0.2 mm 6 m/s 746 mmHg 85%
    17:00 +6°C° 0.2 mm 7 m/s 745 mmHg 85%
    18:00 +6°C° 0.2 mm 7 m/s 744 mmHg 86%
    19:00 +7°C° 0.3 mm 8 m/s 743 mmHg 85%
    20:00 +7°C° 0.3 mm 8 m/s 742 mmHg 83%
    21:00 +7°C° 0.3 mm 9 m/s 740 mmHg 82%
    22:00 +8°C° 0.6 mm 10 m/s 739 mmHg 81%
    23:00 +8°C° 0.6 mm 12 m/s 738 mmHg 80%

    28 Janvier, Mardi

    Heure Température Précipitation Vent Pression Humidité
    00:00 +8°C° 0.6 mm 13 m/s 737 mmHg 79%
    01:00 +7°C° 0.5 mm 13 m/s 737 mmHg 78%
    02:00 +7°C° 0.5 mm 12 m/s 737 mmHg 76%
    03:00 +5°C° 0.5 mm 12 m/s 738 mmHg 74%
    04:00 +4°C° 0.2 mm 11 m/s 739 mmHg 74%
    05:00 +3°C° 0.2 mm 10 m/s 740 mmHg 74%
    06:00 +2°C° 0.2 mm 8 m/s 741 mmHg 74%
    07:00 +2°C° 0.1 mm 8 m/s 742 mmHg 73%
    08:00 +1°C° 0.1 mm 8 m/s 743 mmHg 73%
    09:00 +2°C° 0.1 mm 7 m/s 744 mmHg 72%
    10:00 +2°C° 0 mm 8 m/s 744 mmHg 69%
    11:00 +2°C° 0 mm 8 m/s 745 mmHg 65%
    12:00 +4°C° 0 mm 8 m/s 745 mmHg 62%
    13:00 +4°C° 0 mm 8 m/s 745 mmHg 65%
    14:00 +4°C° 0 mm 8 m/s 745 mmHg 67%
    15:00 +4°C° 0 mm 8 m/s 745 mmHg 70%
    16:00 +3°C° 0.1 mm 7 m/s 745 mmHg 72%
    17:00 +3°C° 0.1 mm 7 m/s 745 mmHg 75%
    18:00 +2°C° 0.1 mm 6 m/s 745 mmHg 77%
    19:00 +2°C° 0 mm 7 m/s 745 mmHg 77%
    20:00 +2°C° 0 mm 7 m/s 744 mmHg 76%
    21:00 +1°C° 0 mm 8 m/s 744 mmHg 75%
    22:00 +2°C° 0 mm 8 m/s 743 mmHg 75%
    23:00 +2°C° 0 mm 8 m/s 742 mmHg 74%
    Voir plus